Regional Weather Roundup
Issued by NWS

Home | Current Version | Previous Version | Text Only | Print | Product List | Glossary Off
Versions: 1 2 3 4 5 6 7 8 9 10 11 12 13 14 15 16 17 18 19 20 21 22 23 24 25 26 27 28 29 30 31 32 33 34 35 36 37 38 39 40 41 42 43 44 45 46 47 48 49 50

000
ASUS43 KIND 221859
RWRIN

WEATHER ROUNDUP FOR INDIANA
NATIONAL WEATHER SERVICE INDIANAPOLIS IN
300 PM EDT FRI MAY 22 2015

NOTE: "FAIR" INDICATES FEW OR NO CLOUDS BELOW 12,000 FEET WITH NO
SIGNIFICANT WEATHER AND/OR OBSTRUCTIONS TO VISIBILITY.

* - STATION DOES NOT REPORT WEATHER SUCH AS PRECIPITATION OR FOG.

+ - STATION NOT QUALITY CONTROLLED BY THE NATIONAL WEATHER SERVICE.
    USE DATA WITH CAUTION...ESPECIALLY DEWPOINT AND RELATIVE
    HUMIDITY OBSERVATIONS.

INZ001>003-010>013-019-020-222000-
NORTHWEST INDIANA

CITY           SKY/WX    TMP DP  RH WIND       PRES   REMARKS
GARY /AIRPORT/ MOSUNNY   57  37  47 NE9       30.27R
RENSSELAER +   SUNNY     73  37  27 N5        30.21S

$$

LMZ046-743>745-222000-
SOUTHERN LAKE MICHIGAN

STATION/POSITION TIME  TEMP    WIND        PRES    WAVE
                       AIR SEA DIR/SP/G            HT
                 (UTC) (F)     (DEG/KT/KT) (MB)    (FT)
BURNS HARBOR     1800   52      40/  8/ 10 1025.1R
MICHIGAN CITY    1800   49      10/ 11/ 12   N/A
5NW MICH CITY    1800   48 51   30/ 12/ 16   N/A     2

$$

INZ004-005-014>016-021>024-222000-
NORTH CENTRAL INDIANA

CITY           SKY/WX    TMP DP  RH WIND       PRES   REMARKS
GOSHEN         SUNNY     67  39  35 NW9       30.22S
SOUTH BEND     SUNNY     71  34  25 VRB7      30.23S

$$

INZ006>009-017-018-025>027-222000-
NORTHEAST INDIANA

CITY           SKY/WX    TMP DP  RH WIND       PRES   REMARKS
ANGOLA *+      SUNNY     66  36  32 NW8       30.21S
FORT WAYNE     MOSUNNY   70  39  32 NW10      30.22R

$$

INZ028-029-035-036-043>045-051>053-222000-
WEST CENTRAL INDIANA

CITY           SKY/WX    TMP DP  RH WIND       PRES   REMARKS
CRAWFORDSVL +  SUNNY     72  35  25 W5        30.22R
GREENCASTLE +  MOSUNNY   72  43  35 W5        30.23S
LAFAYETTE      MOSUNNY   73  46  38 MISG      30.21R
TERRE HAUTE    SUNNY     73  46  38 VRB3      30.22F

$$

INZ030>032-037>040-046>048-054>057-064-065-222000-
CENTRAL INDIANA

CITY           SKY/WX    TMP DP  RH WIND       PRES   REMARKS
ANDERSON       MOSUNNY   70  41  35 W6        30.22
COLUMBUS       MOSUNNY   72  45  37 W12       30.22R
GREENWOOD *+   SUNNY     73  39  29 NW7G17    30.22S
INDIANAPOLIS   MOSUNNY   74  47  38 SW10      30.20S
-EAGLE CREEK   MOSUNNY   71  45  39 NW5       30.20S
KOKOMO *+      SUNNY     73  45  35 NW8       30.21R
MT COMFORT *+  SUNNY     73  30  20 W9G18     30.21S
SHELBYVILLE    MOSUNNY   75  47  36 W8        30.20S

$$

INZ033-034-041-042-049-050-058-059-222000-
EAST CENTRAL INDIANA

CITY           SKY/WX    TMP DP  RH WIND       PRES   REMARKS
MUNCIE         SUNNY     72  48  42 N6        30.20S

$$

INZ060-061-067>069-081>083-085>088-222000-
SOUTHWEST INDIANA

CITY           SKY/WX    TMP DP  RH WIND       PRES   REMARKS
EVANSVILLE     SUNNY     72  49  44 W12G18    30.26F
HUNTINGBURG *+ SUNNY     72  52  49 W14       30.25F

$$

INZ062-063-066-070>080-084-089>092-222000-
SOUTH CENTRAL AND SOUTHEAST INDIANA

CITY           SKY/WX    TMP DP  RH WIND       PRES   REMARKS
BLOOMINGTON    SUNNY     72  44  36 VRB7G17   30.23S
MADISON *+     MOSUNNY   73  41  31 SW8       30.25S
SEYMOUR +      SUNNY     77  48  36 W10G24    30.23S

$$



USA.gov is the U.S. government's official web portal to all federal, state and local government web resources and services.